Regional Weather Roundup
Issued by NWS

Home | Current Version | Previous Version | Graphics & Text | Print | Product List | Glossary On
Versions: 1 2 3 4 5 6 7 8 9 10 11 12 13 14 15 16 17 18 19 20 21 22 23 24 25 26 27 28 29 30 31 32 33 34 35 36 37 38 39 40 41 42 43 44 45 46 47 48 49 50
236
ASUS43 KDMX 280801
RWRIA

WEATHER ROUNDUP FOR IOWA
NATIONAL WEATHER SERVICE DES MOINES IA
200 AM CST TUE FEB 28 2017

NOTE: "FAIR" INDICATES FEW OR NO CLOUDS BELOW 12,000 FEET WITH NO
SIGNIFICANT WEATHER AND/OR OBSTRUCTIONS TO VISIBILITY.

* - THESE STATIONS ARE NOT NWS STATIONS...THUS NOT UNDER NWS
QUALITY CONTROL.  THEY ALSO DO NOT REPORT WEATHER SUCH
AS PRECIPITATION OR FOG.

IAZ001>003-012>014-020>022-031>034-043>046-280900-
   NORTHWEST IOWA

CITY           SKY/WX    TMP DP  RH WIND       PRES   REMARKS
CARROLL *      CLOUDY    37  36  93 SE5       29.67F WCI  34
CHEROKEE *     CLOUDY    37  32  83 CALM      29.67F
DENISON *      CLOUDY    39  32  75 E6        29.63F WCI  35
LE MARS *      CLOUDY    37  30  75 NE6       29.65F WCI  33
SHELDON *      MOCLDY    36  36 100 E5        29.66F WCI  32
SIOUX CITY     CLOUDY    38  30  73 E5        29.63F WCI  34
SPENCER        PTCLDY    35  30  82 E6        29.69F WCI  30
STORM LAKE *   CLOUDY    36  32  87 SE13      29.67F WCI  27
$$

IAZ055>058-069>071-079>083-090>094-280900-
   SOUTHWEST IOWA

CITY           SKY/WX    TMP DP  RH WIND       PRES   REMARKS
ATLANTIC *     CLOUDY    41  36  81 N7        29.65F
AUDUBON *      CLOUDY    34  28  80 CALM      29.67F
CLARINDA *     CLOUDY    54  46  76 SE9       29.67F
COUNCIL BLFS * CLOUDY    45  39  81 SE10      29.62F
CRESTON *      CLOUDY    48  43  81 SE10      29.70F
HARLAN  *      CLOUDY    39  36  87 E7        29.67F WCI  34
LAMONI         CLOUDY    53  42  66 S8        29.71F
RED OAK *      CLOUDY    52  41  66 SE7       29.64F
SHENANDOAH *   CLOUDY    52  43  71 E6        29.63F
$$

IAZ047>049-059>061-072>074-084-280900-
   CENTRAL IOWA

CITY           SKY/WX    TMP DP  RH WIND       PRES   REMARKS
AMES           CLOUDY    40  35  83 SE3       29.72F
ANKENY *       CLOUDY    41  34  75 CALM      29.73F
BOONE *        CLOUDY    39  36  87 E8        29.70F WCI  34
CHARITON *     CLOUDY    50  45  81 SE8       29.73F
DES MOINES     CLOUDY    46  33  60 SE7       29.72F
GRINNELL*      MOCLDY    40  34  81 E6        29.76F
KNOXVILLE *    DRIZZLE   48  43  81 S12G18    29.72F
MARSHALLTOWN   CLOUDY    38  35  89 E9        29.73F WCI  31
NEWTON *       CLOUDY    41  34  75 E7        29.73F
PELLA *        LGT RAIN  47  39  74 S12       29.75F
PERRY *          N/A     38  34  85 E9        29.70F WCI  31
$$

IAZ004>006-015-016-023>025-035-036-280900-
   NORTH CENTRAL IOWA

CITY           SKY/WX    TMP DP  RH WIND       PRES   REMARKS
ALGONA *       CLOUDY    41  34  75 SE15G24   29.70F
CLARION *      CLOUDY    39  36  87 VRB7G17   29.72F WCI  34
ESTHERVILLE    PTCLDY    33  32  96 S7        29.70F WCI  27
FORT DODGE *   CLOUDY    39  30  70 SE9       29.71F WCI  33
MASON CITY     CLOUDY    40  33  76 SE15      29.75F WCI  32
FOREST CITY *    N/A     39  32  75 SE10      29.73F WCI  32
WEBSTER CITY * CLOUDY    37  34  87 E13       29.70F WCI  29
IOWA FALLS *     N/A     39  35  86 E8        29.75F WCI  34
$$

IAZ007>011-017>019-026>030-037>042-050>054-066-280900-
   NORTHEAST IOWA

CITY           SKY/WX    TMP DP  RH WIND       PRES   REMARKS
CEDAR RAPIDS   CLOUDY    42  39  89 SE8       29.77F
CHARLES CITY * CLOUDY    41  39  93 E17       29.77F
CLINTON *      CLOUDY    44  42  93 E10       29.84F
DECORAH *      CLOUDY    41  37  87 E12       29.79F
DUBUQUE        CLOUDY    42  39  89 SE13      29.81F
MONTICELLO *   CLOUDY    45  39  81 SE14      29.79F
OELWEIN *      CLOUDY    43  39  87 E18       29.78F
WATERLOO       CLOUDY    42  36  79 E9        29.77F
$$

IAZ064-065-067-068-078-280900-
   EAST CENTRAL IOWA

CITY           SKY/WX    TMP DP  RH WIND       PRES   REMARKS
DAVENPORT      CLOUDY    49  43  80 S12       29.82F
IOWA CITY      CLOUDY    45  40  82 SE5       29.80F
MUSCATINE *    CLOUDY    52  45  76 S13       29.80F
QUAD CITIES    CLOUDY    50  43  77 S12       29.81F
$$

IAZ062-063-075>077-085>089-095>099-280900-
   SOUTHEAST IOWA

CITY           SKY/WX    TMP DP  RH WIND       PRES   REMARKS
BURLINGTON     CLOUDY    53  46  77 S13       29.81F
FAIRFIELD *    CLOUDY    52  43  71 S12G18    29.78R
FORT MADISON * CLOUDY    52  46  82 S9        29.82F
KEOKUK *       CLOUDY    55  48  76 S12G24    29.80F
CENTERVILLE *  CLOUDY    48  45  87 CALM      29.76S
OTTUMWA        CLOUDY    53  40  61 S12       29.76F THUNDER
WASHINGTON *   CLOUDY    54  45  71 S14       29.79F
$$

ABBREVIATIONS USED IN REMARKS
   TC - TEMPERATURES IN CELSIUS
  WCI - WIND CHILL INDEX
   HX - HEAT INDEX
  VSB - VISIBILITY
$$





USA.gov is the U.S. government's official web portal to all federal, state and local government web resources and services.